Weather History for Harare Kutsaga, Zimbabwe

Change the Weather History Date:

Monday, January 7, 2013

  Actual Average Record
Temperature  
Mean Temperature 70 °F -  
Max Temperature 80 °F 79 °F - ()
Min Temperature 61 °F 60 °F - ()
Cooling Degree Days 6    
Growing Degree Days 20 (Base 50)    
Moisture  
Dew Point 63 °F    
Average Humidity 77    
Maximum Humidity 100    
Minimum Humidity 56    
Precipitation  
Precipitation 0.00 in 0.24 in - ()
Sea Level Pressure  
Sea Level Pressure 30.12 in    
Wind  
Wind Speed 6 mph ()    
Max Wind Speed 14 mph    
Max Gust Speed -    
Visibility 8.8 miles    
Events      
T = Trace of Precipitation, MM = Missing Value Source: Averaged Metar Reports

Daily Weather History Graph

Daily Weather History Graph

Search for Another Location

Airport:

Trip Planner

Search our weather history database for the weather conditions in past years. The results will help you decide how hot, cold, wet, or windy it might be!

Date:

Astronomy

Jan. 07, 2013 Rise Set
Actual Time 5:27 AM CAT 6:36 PM CAT
Civil Twilight 5:03 AM CAT 7:00 PM CAT
Nautical Twilight 4:34 AM CAT 7:28 PM CAT
Astronomical Twilight 4:05 AM CAT 7:57 PM CAT
Moon 12:56 AM CAT (1/7) 2:10 PM CAT (1/7)
Length of Visible Light 13h 56m
Length of Day
13h 08m
Waning Crescent, 26% of the Moon is Illuminated
Jan 7
Waning Crescent
Jan 11
New
Jan 19
First Quarter
Jan 27
Full
Feb 3
Last Quarter

Hourly Weather History & Observations

Time (CAT) Temp. Dew Point Humidity Pressure Visibility Wind Dir Wind Speed Gust Speed Precip Events Conditions
12:00 AM 66.2 °F 66.2 °F 100% 30.15 in 6.2 mi North 3.5 mph - N/A   Mostly Cloudy
1:00 AM 66.2 °F 66.2 °F 100% 30.12 in 6.2 mi North 3.5 mph - N/A   Mostly Cloudy
2:00 AM 65 °F 65 °F 98%  in 19 mi ESE 3.5 mph - -   Partly Cloudy
2:00 AM 64.4 °F 64.4 °F 100% 30.09 in 6.2 mi ESE 3.5 mph - N/A   Mostly Cloudy
6:00 AM 64.4 °F 62.6 °F 94% 30.12 in 6.2 mi ESE 3.5 mph - N/A   Scattered Clouds
7:00 AM 64.4 °F 64.4 °F 100% 30.18 in 6.2 mi East 6.9 mph - N/A   Mostly Cloudy
8:00 AM 67 °F 64 °F 87%  in 19 mi East 5.8 mph - -   Mostly Cloudy
8:00 AM 68.0 °F 64.4 °F 88% 30.18 in 6.2 mi East 5.8 mph - N/A   Mostly Cloudy
9:00 AM 69.8 °F 64.4 °F 83% 30.18 in 6.2 mi South 3.5 mph - N/A   Mostly Cloudy
10:00 AM 71.6 °F 62.6 °F 73% 30.15 in 6.2 mi ESE 6.9 mph - N/A   Mostly Cloudy
11:00 AM 73.4 °F 64.4 °F 73% 30.15 in 6.2 mi East 8.1 mph - N/A   Mostly Cloudy
12:00 PM 75.2 °F 64.4 °F 69% 30.12 in 6.2 mi ENE 12.7 mph - N/A   Mostly Cloudy
1:00 PM 75.2 °F 64.4 °F 69% 30.12 in 6.2 mi NE 11.5 mph - N/A   Scattered Clouds
2:00 PM 78 °F 65 °F 56%  in 19 mi East 10.4 mph - -   Partly Cloudy
2:00 PM 78.8 °F 64.4 °F 61% 30.09 in 6.2 mi East 10.4 mph - N/A   Scattered Clouds
3:00 PM 78.8 °F 62.6 °F 57% 30.06 in 6.2 mi East 10.4 mph - N/A   Mostly Cloudy
4:00 PM 73.4 °F 66.2 °F 78% 30.06 in 6.2 mi SSE 6.9 mph - N/A   Mostly Cloudy
5:00 PM 73.4 °F 60.8 °F 65% 30.06 in 6.2 mi ESE 12.7 mph - N/A   Mostly Cloudy
6:00 PM 73.4 °F 57.2 °F 57% 30.09 in 6.2 mi SE 13.8 mph - N/A   Mostly Cloudy
7:00 PM 71.6 °F 59.0 °F 64% 30.12 in - SE 8.1 mph - N/A   Clear
8:00 PM 70 °F 60 °F 62%  in 19 mi SE 10.4 mph - -   Partly Cloudy
8:00 PM 69.8 °F 60.8 °F 73% 30.15 in - SE 10.4 mph - N/A   Clear
9:00 PM 68.0 °F 59.0 °F 73% 30.18 in - SE 8.1 mph - N/A   Clear